PBO Station Position Time Series. Reference Frame : NAM14
Format Version,1.1.1
4-character ID,P429
Station name,CascadeAirOR2006
Begin Date, 2006-05-11
End Date, 2023-06-26
Release Date, 2023-06-27
Reference position, 45.6761277066 North Latitude, -121.8773603959 East Longitude, 25.56489 meters elevation,
Date, North (mm), East (mm), Vertical (mm), North Std. Deviation (mm), East Std. Deviation (mm),              Vertical Std. Deviation (mm), Quality,
2006-05-11,0.00, 0.00, 0.00, 2.18, 1.55, 7.09, repro,
2006-05-12,1.70, 0.24, 2.04, 2.19, 1.55, 7.11, repro,
2006-05-13,1.45, 0.35, 2.64, 2.19, 1.54, 7.08, repro,
2006-05-14,0.99, 0.20, -0.54, 2.19, 1.54, 7.10, repro,
2006-05-15,-0.53, 1.04, 0.97, 2.16, 1.53, 7.03, repro,
2006-05-16,0.65, 0.60, -0.21, 2.20, 1.59, 7.31, repro,
2006-05-17,0.71, 0.34, 2.13, 2.21, 1.59, 7.33, repro,
2006-05-18,0.65, -0.22, 0.28, 2.20, 1.56, 7.15, repro,
2006-05-19,-0.33, -0.58, 8.31, 2.36, 1.62, 7.53, repro,
2006-05-20,0.71, -0.64, 7.89, 2.27, 1.57, 7.20, repro,
2006-05-21,-0.46, 0.93, 5.08, 2.24, 1.58, 7.25, repro,
2006-05-22,-0.87, -0.59, 6.78, 2.27, 1.62, 7.40, repro,
2006-05-23,0.86, -0.96, 5.90, 2.27, 1.59, 7.27, repro,
2006-05-24,-0.53, -0.57, 8.84, 2.27, 1.58, 7.27, repro,
2006-05-25,-0.55, -0.26, -1.56, 2.34, 1.62, 7.46, repro,
2006-05-26,-2.13, -0.56, 1.53, 2.30, 1.61, 7.38, repro,
2006-05-27,0.62, -0.25, 5.31, 2.23, 1.58, 7.20, repro,
2006-05-28,-0.37, -0.45, 10.37, 2.25, 1.58, 7.27, repro,
2006-05-29,0.24, -0.11, 0.47, 2.27, 1.59, 7.30, repro,
2006-05-30,0.04, 0.05, -2.91, 2.31, 1.61, 7.43, repro,
2006-05-31,0.11, 0.62, 2.21, 2.26, 1.57, 7.24, repro,
2006-06-01,0.17, -0.63, 2.04, 2.30, 1.61, 7.36, repro,
2006-06-02,-0.75, 0.64, 7.25, 2.38, 1.65, 7.64, repro,
2006-06-03,1.26, 2.28, 1.40, 2.31, 1.61, 7.41, repro,
2006-06-04,0.54, 0.84, 6.75, 2.33, 1.60, 7.44, repro,
2006-06-05,-0.75, 0.09, 5.47, 2.30, 1.59, 7.33, repro,
2006-06-06,-1.39, 1.44, 8.80, 2.30, 1.60, 7.35, repro,
2006-06-07,0.41, -0.12, -6.91, 2.31, 1.62, 7.46, repro,
2006-06-08,1.60, -0.65, 3.02, 2.25, 1.59, 7.26, repro,
2006-06-09,-0.17, 0.27, 8.52, 2.26, 1.58, 7.23, repro,
2006-06-10,0.85, 0.60, 7.19, 2.26, 1.56, 7.19, repro,
2006-06-11,0.93, -1.01, 2.47, 2.26, 1.57, 7.19, repro,
2006-06-12,-0.02, 0.36, 2.18, 2.24, 1.58, 7.18, repro,
2006-06-13,1.52, 0.04, -4.81, 2.32, 1.62, 7.44, repro,
2006-06-14,-0.11, 0.62, 1.08, 2.24, 1.58, 7.20, repro,
2006-06-15,1.61, 1.68, 8.31, 2.23, 1.57, 7.15, repro,
2006-06-16,-1.89, 1.42, 1.78, 2.33, 1.61, 7.43, repro,
2006-06-17,0.62, 0.15, 9.36, 2.24, 1.58, 7.21, repro,
2006-06-18,-0.09, 0.02, 5.93, 2.28, 1.63, 7.42, repro,
2006-06-19,0.50, -0.65, -0.72, 2.30, 1.63, 7.49, repro,
2006-06-20,-0.84, -0.37, 9.05, 2.27, 1.61, 7.38, repro,
2006-06-21,0.04, 0.49, 5.10, 2.29, 1.62, 7.39, repro,
2006-06-22,-0.61, -0.48, 6.79, 2.27, 1.62, 7.39, repro,
2006-06-23,0.46, 0.45, -1.52, 2.28, 1.62, 7.38, repro,
2006-06-24,0.96, 1.06, 2.28, 2.28, 1.64, 7.50, repro,
2006-06-25,-1.18, 1.44, 2.75, 2.28, 1.63, 7.44, repro,
2006-06-26,-0.92, 0.47, 0.37, 2.28, 1.62, 7.40, repro,
2006-06-27,-0.77, 0.16, 6.26, 2.27, 1.63, 7.43, repro,
2006-06-28,-2.05, 1.12, 16.91, 2.27, 1.64, 7.45, repro,
2006-06-29,-1.54, -0.09, 6.76, 2.22, 1.60, 7.38, repro,
2006-06-30,0.52, 1.32, 5.91, 2.37, 1.69, 7.96, repro,
2006-07-01,0.64, 1.10, 7.46, 2.24, 1.59, 7.36, repro,
2006-07-02,-0.47, 0.31, 6.54, 2.27, 1.62, 7.46, repro,
2006-07-03,-3.05, 1.68, 3.25, 2.24, 1.59, 7.35, repro,
2006-07-04,0.96, 0.66, -5.20, 2.26, 1.59, 7.38, repro,
2006-07-05,-0.21, -0.57, 4.74, 2.25, 1.59, 7.39, repro,
2006-07-06,0.53, 1.27, 6.33, 2.23, 1.58, 7.33, repro,
2006-07-07,1.03, 1.13, -3.45, 2.25, 1.58, 7.35, repro,
2006-07-08,-1.37, 1.73, -6.03, 2.24, 1.59, 7.33, repro,
2006-07-09,-1.40, 0.62, 4.43, 2.23, 1.59, 7.36, repro,
2006-07-10,0.69, 0.15, 3.75, 2.26, 1.60, 7.46, repro,
2006-07-11,-0.34, -0.32, 12.91, 2.26, 1.61, 7.50, repro,
2006-07-12,1.30, 2.26, 7.76, 2.26, 1.59, 7.46, repro,
2006-07-13,2.61, 1.89, 8.32, 2.26, 1.59, 7.43, repro,
2006-07-14,1.50, 0.62, 5.68, 2.24, 1.60, 7.41, repro,
2006-07-15,-2.58, 0.89, 9.14, 2.25, 1.58, 7.39, repro,
2006-07-16,0.72, 0.55, 9.08, 2.24, 1.59, 7.40, repro,
2006-07-17,2.42, 1.74, 3.32, 2.29, 1.64, 7.62, repro,
2006-07-18,-1.11, 2.16, 4.26, 2.17, 1.56, 7.13, repro,
2006-07-19,1.08, 0.17, 2.89, 2.24, 1.58, 7.29, repro,
2006-07-20,0.14, 1.13, 7.05, 2.24, 1.58, 7.24, repro,
2006-07-21,0.52, 0.45, 4.96, 2.18, 1.55, 7.14, repro,
2006-07-22,1.13, 1.78, 8.95, 2.19, 1.56, 7.16, repro,
2006-07-23,-1.14, 1.04, 5.85, 2.32, 1.70, 7.82, repro,
2006-07-24,2.20, -0.32, 12.28, 2.16, 1.54, 7.05, repro,
2006-07-25,-2.19, 0.48, 9.51, 2.19, 1.56, 7.19, repro,
2006-07-26,-1.91, 2.37, 10.00, 2.21, 1.61, 7.31, repro,
2006-07-27,-2.46, 1.85, 11.45, 2.18, 1.56, 7.14, repro,
2006-07-28,-1.10, 4.35, 3.27, 2.17, 1.55, 7.10, repro,
2006-07-29,-0.38, -0.10, 11.57, 2.17, 1.56, 7.12, repro,
2006-07-30,0.85, 1.60, 12.99, 2.21, 1.61, 7.22, repro,
2006-07-31,-1.04, 0.86, 11.25, 2.18, 1.56, 7.14, repro,
2006-08-01,0.75, 0.03, 15.07, 2.17, 1.55, 7.13, repro,
2006-08-02,-1.23, 1.21, 9.85, 2.23, 1.61, 7.43, repro,
2006-08-03,-0.65, 0.67, 11.35, 2.22, 1.60, 7.35, repro,
2006-08-04,-0.27, 0.65, 18.56, 2.26, 1.63, 7.42, repro,
2006-08-05,-0.96, 1.41, 11.78, 2.26, 1.67, 7.57, repro,
2006-08-06,0.90, 0.14, 12.52, 2.25, 1.65, 7.60, repro,
2006-08-07,1.80, -0.68, 14.12, 2.23, 1.62, 7.49, repro,
2006-08-08,-2.73, 0.96, 9.09, 2.20, 1.56, 7.19, repro,
2006-08-09,0.68, 0.96, 13.41, 2.17, 1.56, 7.10, repro,
2006-08-10,1.03, 0.12, 12.17, 2.19, 1.57, 7.22, repro,
2006-08-11,-1.61, -0.50, 15.77, 2.18, 1.56, 7.16, repro,
2006-08-12,-0.67, 1.53, 9.70, 2.19, 1.56, 7.20, repro,
2006-08-13,0.52, 1.30, 14.49, 2.20, 1.60, 7.35, repro,
2006-08-14,-0.90, 1.12, 13.76, 2.18, 1.55, 7.10, repro,
2006-08-15,-2.47, 1.63, 15.24, 2.25, 1.58, 7.20, repro,
2006-08-16,-0.78, -0.28, 11.38, 2.18, 1.56, 7.14, repro,
2006-08-17,-0.36, 0.72, 15.11, 2.21, 1.62, 7.31, repro,
2006-08-18,0.18, 1.53, 11.41, 2.26, 1.66, 7.42, repro,
2006-08-19,-1.47, 1.13, 3.09, 2.22, 1.61, 7.26, repro,
2006-08-20,0.18, 0.72, 11.60, 2.19, 1.57, 7.12, repro,
2006-08-21,-0.69, 1.41, 14.59, 2.18, 1.58, 7.19, repro,
2006-08-22,-0.07, 1.86, 20.53, 2.20, 1.58, 7.22, repro,
2006-08-23,-0.17, 1.79, 16.50, 2.20, 1.58, 7.21, repro,
2006-08-24,-3.09, 1.53, 25.64, 2.18, 1.58, 7.19, repro,
2006-08-25,-0.19, 1.35, 18.22, 2.22, 1.62, 7.39, repro,
2006-08-26,0.80, 1.10, 12.26, 2.25, 1.65, 7.53, repro,
2006-08-27,0.49, 1.24, 15.35, 2.28, 1.68, 7.69, repro,
2006-08-28,-0.94, 1.96, 14.12, 2.27, 1.67, 7.58, repro,
2006-08-29,-1.15, 2.19, 14.20, 2.27, 1.67, 7.58, repro,
2006-08-30,-0.31, 2.18, 24.58, 2.25, 1.67, 7.54, repro,
2006-08-31,-1.56, 1.33, 9.58, 2.26, 1.67, 7.58, repro,
2006-09-01,-3.26, 5.54, 6.68, 2.27, 1.67, 7.64, repro,
2006-09-02,-1.03, 1.40, 9.91, 2.28, 1.67, 7.66, repro,
2006-09-03,0.17, 1.61, 15.13, 2.25, 1.67, 7.55, repro,
2006-09-04,-1.46, 1.17, 10.95, 2.35, 1.71, 7.78, repro,
2006-09-05,-0.65, 0.71, 3.65, 2.38, 1.74, 7.96, repro,
2006-09-06,-0.64, 1.51, 14.30, 2.28, 1.67, 7.64, repro,
2006-09-07,-2.43, 0.64, 18.52, 2.32, 1.72, 7.94, repro,
2006-09-08,0.84, 1.28, 15.71, 2.31, 1.71, 7.86, repro,
2006-09-09,-1.20, -1.55, 25.22, 2.26, 1.65, 7.51, repro,
2006-09-10,-0.58, 0.68, 13.21, 2.23, 1.64, 7.41, repro,
2006-09-11,0.95, 0.42, 15.63, 2.23, 1.62, 7.37, repro,
2006-09-12,-0.53, 0.65, 13.63, 2.26, 1.63, 7.42, repro,
2006-09-13,-1.53, 0.83, 16.81, 2.25, 1.63, 7.45, repro,
2006-09-14,1.08, 3.76, 15.64, 2.30, 1.73, 7.68, repro,
2006-09-15,0.32, 0.81, 15.95, 2.24, 1.60, 7.26, repro,
2006-09-16,-0.20, 0.75, 17.96, 2.19, 1.57, 7.18, repro,
2006-09-17,-0.55, 0.99, 16.85, 2.20, 1.58, 7.23, repro,
2006-09-18,0.24, 0.69, 27.98, 2.22, 1.59, 7.28, repro,
2006-09-19,0.09, 0.68, 22.28, 2.28, 1.71, 7.62, repro,
2006-09-20,-2.30, 0.29, 14.44, 2.19, 1.59, 7.24, repro,
2006-09-21,4.42, 3.34, 21.91, 2.23, 1.63, 7.39, repro,
2006-09-22,0.41, -0.58, 13.55, 2.28, 1.67, 7.50, repro,
2006-09-23,-0.02, -0.26, 17.30, 2.25, 1.62, 7.35, repro,
2006-09-24,0.71, 1.12, 15.56, 2.24, 1.62, 7.35, repro,
2006-09-25,0.95, -0.01, 16.12, 2.22, 1.59, 7.29, repro,
2006-09-26,-1.49, 0.94, 10.14, 2.20, 1.58, 7.18, repro,
2006-09-27,0.08, 0.93, 10.11, 2.24, 1.60, 7.28, repro,
2006-09-28,-1.39, -0.04, 11.48, 2.22, 1.60, 7.24, repro,
2006-09-29,-1.59, 0.11, 17.04, 2.20, 1.61, 7.28, repro,
2006-09-30,-3.18, 1.63, 23.64, 2.26, 1.65, 7.56, repro,
2006-10-01,-1.27, 0.98, 15.96, 2.23, 1.61, 7.34, repro,
2006-10-02,0.74, -0.64, 17.28, 2.28, 1.66, 7.44, repro,
2006-10-03,0.43, 1.24, 10.29, 2.32, 1.70, 7.70, repro,
2006-10-04,1.89, -0.30, 16.48, 2.21, 1.60, 7.30, repro,
2006-10-05,0.43, 0.10, 16.51, 2.21, 1.59, 7.27, repro,
2006-10-06,-0.08, 1.16, 20.21, 2.22, 1.59, 7.27, repro,
2006-10-07,0.69, 0.26, 10.82, 2.25, 1.64, 7.36, repro,
2006-10-08,-1.02, 0.58, 8.72, 2.26, 1.64, 7.38, repro,
2006-10-09,0.47, 3.46, 2.95, 2.26, 1.66, 7.46, repro,
2006-10-10,0.16, 0.96, 9.80, 2.24, 1.63, 7.48, repro,
2006-10-11,-0.69, 1.16, 16.92, 2.25, 1.63, 7.53, repro,
2006-10-12,-0.49, 1.06, 22.21, 2.22, 1.60, 7.27, repro,
2006-10-13,-0.39, 0.64, 20.07, 2.18, 1.57, 7.14, repro,
2006-10-14,0.48, 0.57, 15.36, 2.24, 1.67, 7.59, repro,
2006-10-15,0.53, -2.68, 23.46, 2.32, 1.68, 7.58, repro,
2006-10-16,1.01, -0.65, 30.82, 2.18, 1.60, 7.26, repro,
2006-10-17,0.21, 0.65, 24.59, 2.22, 1.65, 7.55, repro,
2006-10-18,0.64, -0.14, 18.36, 2.16, 1.56, 7.07, repro,
2006-10-19,0.32, 2.86, 22.01, 2.47, 1.75, 7.98, repro,
2006-10-20,-0.46, 1.26, 25.75, 2.54, 1.85, 8.82, repro,
2006-10-21,-3.39, 3.26, 1.42, 2.35, 1.74, 7.95, repro,
2006-10-22,-1.71, 2.69, 10.71, 2.25, 1.66, 7.62, repro,
2006-10-23,0.49, 1.11, 9.34, 2.36, 1.72, 7.72, repro,
2006-10-24,-1.24, -0.48, 11.04, 2.47, 1.73, 7.96, repro,
2006-10-25,2.09, 1.09, 13.08, 2.38, 1.71, 7.89, repro,
2006-10-26,1.28, 0.47, 16.16, 2.24, 1.67, 7.61, repro,
2006-10-27,0.09, -0.39, 7.50, 2.18, 1.63, 7.36, repro,
2006-10-28,0.62, 0.36, 11.16, 2.35, 1.70, 7.82, repro,
2006-10-29,0.08, -1.16, 13.49, 2.17, 1.60, 7.30, repro,
2006-10-30,-1.43, 0.20, 12.12, 2.14, 1.57, 7.13, repro,
2006-10-31,1.07, 0.66, 12.73, 2.19, 1.61, 7.37, repro,
2006-11-01,1.09, 0.20, 15.87, 2.30, 1.67, 7.76, repro,
2006-11-02,1.02, -0.27, 20.56, 2.18, 1.60, 7.35, repro,
2006-11-03,1.92, 0.37, 22.02, 2.18, 1.63, 7.35, repro,
2006-11-04,0.90, 1.75, 6.48, 2.27, 1.67, 7.53, repro,
2006-11-05,1.13, -0.92, 7.59, 2.37, 1.76, 7.90, repro,
2006-11-06,1.87, -5.26, 7.09, 2.17, 1.60, 7.34, repro,
2006-11-07,0.93, -2.13, 9.54, 2.29, 1.65, 7.50, repro,
2006-11-08,-0.16, -1.48, 17.49, 2.31, 1.66, 7.51, repro,
2006-11-09,1.18, -0.63, 17.73, 2.30, 1.66, 7.52, repro,
2006-11-10,1.25, -0.22, 12.90, 2.23, 1.60, 7.23, repro,
2006-11-11,1.42, -1.46, 10.69, 2.29, 1.66, 7.51, repro,
2006-11-12,-1.34, -1.46, 9.18, 2.42, 1.73, 7.75, repro,
2006-11-13,3.82, -0.63, 8.43, 2.38, 1.69, 7.59, repro,
2006-11-14,1.13, 1.41, 18.16, 2.18, 1.58, 7.19, repro,
2006-11-15,1.61, 0.08, 4.20, 2.14, 1.57, 7.11, repro,
2006-11-16,1.56, -1.34, 12.90, 2.12, 1.57, 7.09, repro,
2006-11-17,0.50, -0.79, 12.14, 2.13, 1.57, 7.10, repro,
2006-11-18,0.94, 0.05, 2.18, 2.14, 1.57, 7.13, repro,
2006-11-19,0.28, 1.28, 11.76, 2.18, 1.60, 7.29, repro,
2006-11-20,3.86, 1.40, 13.27, 2.16, 1.58, 7.18, repro,
2006-11-21,3.39, -0.39, 7.76, 2.13, 1.57, 7.07, repro,
2006-11-22,0.99, -0.41, 13.56, 2.13, 1.58, 7.12, repro,
2006-11-23,2.66, -0.78, 2.57, 2.19, 1.63, 7.35, repro,
2006-11-24,0.82, -1.87, 4.25, 2.19, 1.63, 7.37, repro,
2006-11-25,2.26, -0.34, 3.21, 2.16, 1.58, 7.15, repro,
2006-11-26,3.22, -2.03, 1.34, 2.15, 1.58, 7.11, repro,
2006-11-27,1.96, -0.23, -5.91, 2.18, 1.59, 7.16, repro,
2006-11-28,-0.11, 0.87, 0.34, 2.14, 1.58, 7.10, repro,
2006-11-29,1.27, -0.38, -1.96, 2.14, 1.59, 7.17, repro,
2006-11-30,0.95, -0.55, -7.35, 2.23, 1.71, 7.72, repro,
2006-12-01,0.46, 1.37, -6.81, 2.14, 1.58, 7.11, repro,
2006-12-02,0.96, -0.10, -9.14, 2.13, 1.57, 7.04, repro,
2006-12-03,1.62, 0.51, -7.94, 2.13, 1.58, 7.08, repro,
2006-12-04,1.45, 0.64, -6.05, 2.18, 1.61, 7.23, repro,
2006-12-05,0.24, 1.13, 0.26, 2.19, 1.64, 7.34, repro,
2006-12-06,2.04, 0.29, 2.60, 2.24, 1.69, 7.48, repro,
2006-12-07,1.25, 0.09, -1.51, 2.15, 1.62, 7.22, repro,
2006-12-08,0.63, -0.03, -1.96, 2.16, 1.64, 7.31, repro,
2006-12-09,1.63, -0.56, 11.17, 2.20, 1.65, 7.35, repro,
2006-12-10,1.32, -0.04, 13.50, 2.20, 1.65, 7.37, repro,
2006-12-11,-0.41, -0.34, 10.69, 2.14, 1.58, 7.12, repro,
2006-12-12,2.65, -0.41, 5.22, 2.22, 1.65, 7.38, repro,
2006-12-13,3.08, -0.22, -6.45, 2.14, 1.64, 7.28, repro,
2006-12-14,0.04, -1.07, 2.21, 2.11, 1.59, 7.11, repro,
2006-12-15,1.50, -1.96, 3.63, 2.26, 1.75, 7.71, repro,
2006-12-16,1.96, -0.57, 4.21, 2.22, 1.66, 7.38, repro,
2006-12-17,1.26, -0.06, -0.28, 2.20, 1.67, 7.42, repro,
2006-12-18,0.18, 0.73, -3.35, 2.47, 1.89, 8.53, repro,
2006-12-19,2.13, -1.09, 0.22, 2.22, 1.74, 7.67, repro,
2006-12-20,1.84, -0.46, -2.89, 2.27, 1.75, 7.63, repro,
2006-12-21,0.55, -1.06, 2.50, 2.17, 1.69, 7.46, repro,
2006-12-22,0.33, 0.28, -3.84, 2.28, 1.79, 7.96, repro,
2006-12-23,1.25, -0.80, -8.77, 2.19, 1.67, 7.47, repro,
2006-12-24,2.58, 0.41, -6.77, 2.13, 1.60, 7.11, repro,
2006-12-25,1.56, -0.40, -0.73, 2.19, 1.70, 7.47, repro,
2006-12-26,2.24, -1.33, 3.18, 2.28, 1.74, 7.68, repro,
2006-12-27,2.72, -0.90, 2.06, 2.19, 1.69, 7.43, repro,
2006-12-28,-0.69, -0.37, -4.65, 2.30, 1.85, 8.08, repro,
2006-12-29,0.20, 0.41, -13.87, 2.21, 1.71, 7.56, repro,
2006-12-30,1.51, -0.51, -3.32, 2.24, 1.73, 7.62, repro,
2006-12-31,1.72, 0.64, -7.10, 2.41, 1.86, 8.25, repro,
2007-01-01,1.12, 1.52, 0.89, 2.26, 1.76, 7.74, repro,
2007-01-02,2.06, -0.89, -2.11, 2.35, 1.86, 8.20, repro,
2007-01-03,0.16, -2.99, 4.30, 2.12, 1.65, 7.25, repro,
2007-01-04,2.17, -2.96, 2.49, 2.12, 1.62, 7.18, repro,
2007-01-05,1.68, -0.77, -10.55, 2.15, 1.66, 7.28, repro,
2007-01-06,2.23, -1.68, -1.47, 2.14, 1.62, 7.24, repro,
2007-01-07,0.80, -6.60, 2.78, 2.19, 1.63, 7.24, repro,
2007-01-08,0.59, -2.24, -7.25, 2.18, 1.64, 7.30, repro,
2007-01-09,1.60, -1.55, -6.24, 2.15, 1.60, 7.09, repro,
2007-01-10,1.29, -2.52, 3.46, 2.17, 1.60, 7.12, repro,
2007-01-11,2.75, 1.34, -7.62, 2.27, 1.62, 7.32, repro,
2007-01-12,2.58, 0.35, -12.20, 2.16, 1.58, 7.11, repro,
2007-01-13,3.42, 0.42, -11.24, 2.08, 1.54, 6.87, repro,
2007-01-14,2.72, 0.06, -11.26, 2.07, 1.53, 6.83, repro,
2007-01-15,1.86, -0.28, -16.94, 2.07, 1.54, 6.90, repro,
2007-01-16,1.87, -0.14, -7.09, 2.15, 1.56, 7.03, repro,
2007-01-17,2.20, 0.14, -9.99, 2.14, 1.60, 7.11, repro,
2007-01-18,2.40, 0.01, -14.96, 2.17, 1.64, 7.26, repro,
2007-01-19,1.60, -0.53, -5.55, 2.13, 1.56, 7.09, repro,
2007-01-20,1.61, -1.15, 0.24, 2.12, 1.56, 7.03, repro,
2007-01-21,1.03, 0.58, -2.82, 2.09, 1.56, 6.92, repro,
2007-01-22,1.03, 0.94, 1.97, 2.15, 1.56, 7.03, repro,
2007-01-23,1.38, -0.11, -4.99, 2.10, 1.55, 6.91, repro,
2007-01-24,1.33, 0.35, -14.01, 2.09, 1.55, 6.91, repro,
2007-01-25,1.42, -0.13, -12.85, 2.14, 1.58, 6.96, repro,
2007-01-26,1.26, 0.90, -7.32, 2.08, 1.54, 6.83, repro,
2007-01-27,-0.21, 1.68, -16.89, 2.11, 1.55, 6.91, repro,
2007-01-28,1.14, 1.23, -9.19, 2.12, 1.56, 6.96, repro,
2007-01-29,2.84, 1.43, -9.28, 2.10, 1.54, 6.87, repro,
2007-01-30,2.65, 0.66, -9.83, 2.07, 1.53, 6.76, repro,
2007-01-31,1.93, 2.49, -6.65, 2.07, 1.54, 6.81, repro,
2007-02-01,0.84, 2.47, 0.43, 2.16, 1.64, 7.24, repro,
2007-02-02,0.37, 1.46, -2.28, 2.15, 1.58, 7.06, repro,
2007-02-03,1.39, 0.67, 1.79, 2.16, 1.57, 7.08, repro,
2007-02-04,0.52, 0.11, 0.17, 2.08, 1.54, 6.81, repro,
2007-02-05,0.35, 0.21, -10.50, 2.08, 1.54, 6.79, repro,
2007-02-06,1.50, 2.28, -3.45, 2.08, 1.56, 6.89, repro,
2007-02-07,2.63, 0.81, -2.92, 2.10, 1.55, 6.90, repro,
2007-02-08,2.17, 1.37, -4.70, 2.13, 1.61, 7.09, repro,
2007-02-09,2.92, 1.34, -3.32, 2.13, 1.60, 7.08, repro,
2007-02-10,0.58, -0.28, -1.08, 2.08, 1.54, 6.80, repro,
2007-02-11,3.07, -0.05, 2.79, 2.08, 1.55, 6.86, repro,
2007-02-12,0.89, 0.08, 0.85, 2.10, 1.56, 6.92, repro,
2007-02-13,1.59, 0.86, -8.87, 2.09, 1.56, 6.91, repro,
2007-02-14,1.61, 1.55, -7.92, 2.11, 1.55, 6.91, repro,
2007-02-15,1.91, -4.03, -2.76, 2.10, 1.55, 6.87, repro,
2007-02-16,0.34, -1.40, 1.70, 2.09, 1.54, 6.84, repro,
2007-02-17,0.50, 1.79, -0.87, 2.12, 1.59, 7.03, repro,
2007-02-18,0.25, 0.15, -2.43, 2.09, 1.56, 6.97, repro,
2007-02-19,0.33, 1.26, 2.56, 2.09, 1.55, 6.87, repro,
2007-02-20,-0.21, -2.87, 5.60, 2.12, 1.55, 6.94, repro,
2007-02-21,0.59, -1.32, 2.50, 2.10, 1.55, 6.91, repro,
2007-02-22,1.13, -0.42, -0.08, 2.09, 1.55, 6.87, repro,
2007-02-23,1.32, 0.43, 2.20, 2.19, 1.63, 7.26, repro,
2007-02-24,0.38, 2.80, 2.45, 2.10, 1.55, 6.89, repro,
2007-02-25,2.13, 0.61, 9.46, 2.11, 1.55, 6.90, repro,
2007-02-26,0.20, 0.96, 1.24, 2.10, 1.55, 6.88, repro,
2007-02-27,1.59, 0.05, 8.44, 2.10, 1.54, 6.88, repro,
2007-02-28,0.05, -0.21, 4.48, 2.10, 1.55, 6.92, repro,
2007-03-01,2.62, 0.14, -0.35, 2.19, 1.63, 7.20, repro,
2007-03-02,1.30, 0.58, 1.10, 2.18, 1.62, 7.19, repro,
2007-03-03,0.59, 0.95, -4.51, 2.17, 1.65, 7.29, repro,
2007-03-04,0.85, 0.68, -10.60, 2.16, 1.65, 7.21, repro,
2007-03-05,1.78, 0.98, -6.01, 2.15, 1.59, 7.06, repro,
2007-03-06,1.41, 0.34, -6.73, 2.16, 1.59, 7.06, repro,
2007-03-07,2.19, 0.39, 4.00, 2.15, 1.59, 7.07, repro,
2007-03-08,-0.66, 0.55, 1.44, 2.16, 1.59, 7.07, repro,
2007-03-09,0.12, 0.37, 0.41, 2.13, 1.58, 7.00, repro,
2007-03-10,0.51, 0.53, -1.86, 2.22, 1.61, 7.19, repro,
2007-03-11,0.51, -1.46, -8.82, 2.16, 1.58, 7.03, repro,
2007-03-12,0.68, -2.10, -2.95, 2.18, 1.60, 7.13, repro,
2007-03-13,0.04, -1.10, 6.05, 2.10, 1.55, 6.93, repro,
2007-03-14,0.59, -1.38, 5.21, 2.12, 1.55, 6.92, repro,
2007-03-15,1.66, 0.92, -9.75, 2.14, 1.58, 7.01, repro,
2007-03-16,2.17, 0.75, -7.29, 2.16, 1.56, 6.99, repro,
2007-03-17,2.65, 0.52, -5.16, 2.15, 1.55, 6.96, repro,
2007-03-18,-0.29, 1.02, 0.92, 2.14, 1.55, 6.94, repro,
2007-03-19,-0.30, 1.20, 1.76, 2.11, 1.55, 6.87, repro,
2007-03-20,-0.79, 1.73, -1.26, 2.19, 1.56, 6.88, repro,
2007-03-21,-0.48, 0.62, 1.93, 2.21, 1.56, 6.92, repro,
2007-03-22,1.49, -1.26, 0.80, 2.14, 1.55, 6.98, repro,
2007-03-23,0.55, -0.02, -5.43, 2.16, 1.59, 7.09, repro,
2007-03-24,-1.66, 1.06, -4.34, 2.11, 1.55, 6.88, repro,
2007-03-25,-0.93, -0.14, 3.47, 2.18, 1.57, 6.98, repro,
2007-03-26,-0.99, -0.03, -2.05, 2.11, 1.53, 6.76, repro,
2007-03-27,-0.58, 0.82, -1.74, 2.18, 1.56, 7.03, repro,
2007-03-28,2.12, 0.07, -3.19, 2.18, 1.57, 7.05, repro,
2007-03-29,0.30, 1.40, -9.95, 2.12, 1.55, 6.94, repro,
2007-03-30,1.01, 2.29, -4.89, 2.12, 1.54, 6.87, repro,
2007-03-31,0.67, 1.32, -3.07, 2.10, 1.52, 6.74, repro,
2007-04-01,0.06, 0.44, 0.77, 2.12, 1.53, 6.81, repro,
2007-04-02,0.09, 1.07, 4.17, 2.13, 1.54, 6.87, repro,
2007-04-03,2.52, 0.59, -7.36, 2.16, 1.59, 7.05, repro,
2007-04-04,1.35, 0.93, -4.25, 2.17, 1.57, 7.01, repro,
2007-04-05,1.15, 1.66, -4.06, 2.19, 1.61, 7.09, repro,
2007-04-06,1.93, 1.59, -3.27, 2.15, 1.56, 6.93, repro,
2007-04-07,-0.33, 0.62, 4.67, 2.17, 1.57, 6.99, repro,
2007-04-08,0.48, 0.75, 4.44, 2.23, 1.60, 7.12, repro,
2007-04-09,3.39, -0.61, -1.42, 2.12, 1.54, 6.86, repro,
2007-04-10,0.40, -0.26, 3.34, 2.17, 1.57, 7.03, repro,
2007-04-11,-1.12, 1.87, 1.07, 2.13, 1.54, 6.87, repro,
2007-04-12,-1.18, 0.27, 6.75, 2.13, 1.53, 6.84, repro,
2007-04-13,1.14, 1.13, -3.87, 2.13, 1.54, 6.90, repro,
2007-04-14,1.11, 1.61, 6.09, 2.12, 1.54, 6.87, repro,
2007-04-15,0.48, 1.14, 6.07, 2.13, 1.54, 6.89, repro,
2007-04-16,1.42, 0.96, -1.33, 2.12, 1.54, 6.87, repro,
2007-04-17,0.23, -1.02, -1.62, 2.12, 1.52, 6.81, repro,
2007-04-18,0.33, 1.87, 1.39, 2.13, 1.53, 6.84, repro,
2007-04-19,3.16, 0.50, -1.04, 2.14, 1.54, 6.91, repro,
2007-04-20,2.10, -0.06, -0.03, 2.15, 1.54, 6.89, repro,
2007-04-21,2.57, 1.08, 1.82, 2.12, 1.54, 6.87, repro,
2007-04-22,1.71, -0.16, 4.11, 2.12, 1.53, 6.86, repro,
2007-04-23,-0.07, 0.93, -1.69, 2.18, 1.59, 7.12, repro,
2007-04-24,3.59, 1.67, -8.97, 2.19, 1.56, 7.06, repro,
2007-04-25,-0.42, 1.25, 2.77, 2.17, 1.56, 7.03, repro,
2007-04-26,1.90, 1.82, 1.10, 2.12, 1.54, 6.89, repro,
2007-04-27,1.69, 1.44, 3.71, 2.13, 1.54, 6.93, repro,
2007-04-28,0.64, 0.94, -12.28, 2.15, 1.58, 7.04, repro,
2007-04-29,0.55, 0.22, -6.87, 2.15, 1.54, 6.93, repro,
2007-04-30,1.34, 1.07, 0.66, 2.14, 1.53, 6.91, repro,
2007-05-01,0.78, 1.29, -0.84, 2.12, 1.53, 6.87, repro,
2007-05-02,3.43, 1.59, 1.68, 2.25, 1.60, 7.32, repro,
2007-05-03,-0.22, 1.03, 4.12, 2.20, 1.55, 7.12, repro,
2007-05-04,1.60, 1.91, -1.20, 2.16, 1.54, 6.98, repro,
2007-05-05,-1.26, 0.84, 0.35, 2.18, 1.57, 7.11, repro,
2007-05-06,0.31, 1.92, -7.77, 2.15, 1.52, 6.88, repro,
2007-05-07,2.59, 2.13, -2.83, 2.15, 1.52, 6.90, repro,
2007-05-08,2.12, 0.56, -3.42, 2.16, 1.53, 6.96, repro,
2007-05-09,-0.78, 1.33, -8.19, 2.18, 1.58, 7.12, repro,
2007-05-10,0.10, 0.19, -10.55, 2.28, 1.60, 7.39, repro,
2007-05-11,1.49, 0.63, -2.21, 2.24, 1.59, 7.31, repro,
2007-05-12,1.10, 0.00, 3.16, 2.16, 1.52, 6.95, repro,
2007-05-13,0.65, 1.12, -3.37, 2.20, 1.57, 7.10, repro,
2007-05-14,1.17, 1.14, -11.41, 2.19, 1.56, 7.08, repro,
2007-05-15,0.83, 2.97, -6.31, 2.17, 1.53, 6.98, repro,
2007-05-16,2.48, 0.79, -6.10, 2.17, 1.54, 6.99, repro,
2007-05-17,0.86, -0.95, 8.76, 2.19, 1.56, 7.12, repro,
2007-05-18,1.89, 0.03, 3.17, 2.24, 1.62, 7.28, repro,
2007-05-19,2.43, 2.12, -2.08, 2.16, 1.54, 6.96, repro,
2007-05-20,0.82, 0.82, -1.58, 2.22, 1.60, 7.14, repro,
2007-05-21,1.76, 0.67, 0.71, 2.26, 1.66, 7.44, repro,
2007-05-22,2.25, 0.02, -3.32, 2.16, 1.53, 6.95, repro,
2007-05-23,0.56, 0.32, -5.17, 2.16, 1.55, 7.01, repro,
2007-05-24,0.26, -0.19, -2.73, 2.24, 1.59, 7.13, repro,
2007-05-25,3.17, 1.00, -8.94, 2.18, 1.54, 6.99, repro,
2007-05-26,2.35, 1.05, -2.32, 2.22, 1.59, 7.11, repro,
2007-05-27,-0.05, 3.38, 11.37, 2.18, 1.54, 6.98, repro,
2007-05-28,2.25, 3.03, -3.43, 2.16, 1.53, 6.94, repro,
2007-05-29,0.31, 1.37, 1.35, 2.15, 1.52, 6.89, repro,
2007-05-30,2.43, 2.22, -7.17, 2.21, 1.55, 6.98, repro,
2007-05-31,1.94, -0.58, 0.17, 2.21, 1.59, 7.09, repro,
2007-06-01,2.34, 1.22, -0.19, 2.29, 1.61, 7.21, repro,
2007-06-02,-0.16, 1.21, 3.14, 2.16, 1.53, 6.97, repro,
2007-06-03,3.16, 0.13, 2.33, 2.20, 1.59, 7.14, repro,
2007-06-04,1.63, 1.72, 0.47, 2.16, 1.55, 6.98, repro,
2007-06-05,-0.32, -0.26, 6.32, 2.20, 1.56, 7.06, repro,
2007-06-06,1.45, 1.27, 12.31, 2.15, 1.54, 6.89, repro,
2007-06-07,0.62, -0.62, 7.33, 2.18, 1.59, 7.09, repro,
2007-06-08,0.20, 0.53, -0.32, 2.15, 1.54, 6.92, repro,
2007-06-09,0.37, 1.70, 0.46, 2.17, 1.56, 7.02, repro,
2007-06-10,2.24, -0.33, -2.56, 2.15, 1.55, 6.95, repro,
2007-06-11,0.22, 0.08, 8.08, 2.18, 1.62, 7.12, repro,
2007-06-12,1.75, 1.39, -1.24, 2.18, 1.56, 7.01, repro,
2007-06-13,0.91, 1.69, 5.46, 2.16, 1.54, 6.96, repro,
2007-06-14,0.69, 1.33, -16.28, 2.22, 1.59, 7.15, repro,
2007-06-15,3.17, 1.14, -7.58, 2.15, 1.55, 6.98, repro,
2007-06-16,2.24, 0.78, -3.56, 2.12, 1.53, 6.82, repro,
2007-06-17,1.80, 2.82, -6.29, 2.14, 1.53, 6.84, repro,
2007-06-18,2.25, -1.16, -4.16, 2.16, 1.54, 6.93, repro,
2007-06-19,1.23, 0.34, -1.85, 2.16, 1.54, 6.96, repro,
2007-06-20,1.75, -0.76, -7.16, 2.16, 1.54, 6.96, repro,
2007-06-21,4.10, -1.02, -2.70, 2.15, 1.54, 6.92, repro,
2007-06-22,2.89, -0.09, -4.93, 2.14, 1.54, 6.90, repro,
2007-06-23,2.54, 0.13, -0.94, 2.14, 1.53, 6.86, repro,
2007-06-24,2.07, 1.35, -6.55, 2.18, 1.59, 7.11, repro,
2007-06-25,0.39, 0.68, 2.89, 2.19, 1.60, 7.13, repro,
2007-06-26,0.25, -0.26, -3.70, 2.16, 1.55, 6.98, repro,
2007-06-27,0.82, -1.39, 3.32, 2.22, 1.57, 7.06, repro,
2007-06-28,1.63, -0.27, -1.42, 2.14, 1.53, 6.91, repro,
2007-06-29,2.48, 0.57, -1.28, 2.27, 1.64, 7.29, repro,
2007-06-30,1.79, 0.47, -0.18, 2.19, 1.57, 7.06, repro,
2007-07-01,0.07, 0.12, -0.16, 2.20, 1.59, 7.12, repro,
2007-07-02,1.92, -0.47, 13.84, 2.17, 1.55, 7.02, repro,
2007-07-03,0.55, -0.40, 0.67, 2.15, 1.54, 6.91, repro,
2007-07-04,0.68, 0.40, -1.64, 2.13, 1.52, 6.85, repro,
2007-07-05,0.50, 0.47, -2.58, 2.21, 1.55, 7.09, repro,
2007-07-06,2.53, -0.18, -5.58, 2.22, 1.58, 7.08, repro,
2007-07-07,0.70, -0.07, 1.01, 2.16, 1.56, 7.00, repro,
2007-07-08,0.29, -4.22, 1.29, 2.18, 1.55, 6.98, repro,
2007-07-09,1.03, 0.51, -1.70, 2.15, 1.52, 6.85, repro,
2007-07-10,-0.02, 1.13, 1.45, 2.13, 1.53, 6.86, repro,